Nebraska City, NE

9:07 PM CST on February 13, 2016 (GMT -0600)
Nebraska City Municipal

Weather History for KAFK - May, 2014

Change the Weather History Date:

Tuesday, May 13, 2014

  Actual Average (KSDA) Record (KSDA)
Temperature  
Mean Temperature 52 °F -  
Max Temperature 61 °F 72 °F 93 °F (2001)
Min Temperature 42 °F 49 °F 30 °F (1997)
Degree Days  
Heating Degree Days 14    
Growing Degree Days 2 (Base 50)    
Moisture  
Dew Point 37 °F    
Average Humidity 59    
Maximum Humidity 95    
Minimum Humidity 36    
Precipitation  
Precipitation 0.03 in - - ()
Sea Level Pressure  
Sea Level Pressure 30.19 in    
Wind  
Wind Speed 13 mph (NNW)    
Max Wind Speed 20 mph    
Max Gust Speed 30 mph    
Visibility 10 miles    
Events      
Averages and records for this station are not official NWS values.
T = Trace of Precipitation, MM = Missing Value Source: NWS Daily Summary

Daily Weather History Graph

Daily Weather History Graph

Search for Another Location

Airport or City:

Trip Planner

Search our weather history database for the weather conditions in past years. The results will help you decide how hot, cold, wet, or windy it might be!

Date:

Astronomy

May. 13, 2014 Rise Set
Actual Time 6:08 AM CDT 8:31 PM CDT
Civil Twilight 5:37 AM CDT 9:02 PM CDT
Nautical Twilight 4:59 AM CDT 9:40 PM CDT
Astronomical Twilight 4:17 AM CDT 10:23 PM CDT
Moon 7:33 PM CDT (5/13) 5:26 AM CDT (5/13)
Length of Visible Light 15h 24m
Length of Day
14h 23m
Waxing Gibbous, 99% of the Moon is Illuminated
May 13
Waxing Gibbous
May 14
Full
May 21
Last Quarter
May 28
New
Jun 5
First Quarter

Hourly Weather History & Observations

Time (CDT) Temp. Windchill Dew Point Humidity Pressure Visibility Wind Dir Wind Speed Gust Speed Precip Events Conditions
12:15 AM 47.5 °F - 43.2 °F 85% 30.05 in 10.0 mi NNW 13.8 mph - N/A   Overcast
12:35 AM 47.7 °F - 43.0 °F 84% 30.07 in 10.0 mi NNW 15.0 mph - N/A   Overcast
12:55 AM 47.8 °F - 42.8 °F 83% 30.09 in 10.0 mi NNW 11.5 mph 18.4 mph N/A   Overcast
1:15 AM 47.8 °F - 42.8 °F 83% 30.11 in 10.0 mi NNW 11.5 mph 18.4 mph N/A   Overcast
1:35 AM 47.8 °F - 42.8 °F 83% 30.11 in 10.0 mi NNW 12.7 mph 18.4 mph N/A   Overcast
1:55 AM 47.8 °F - 43.0 °F 83% 30.10 in 10.0 mi NNW 11.5 mph - N/A   Overcast
2:15 AM 47.7 °F - 42.8 °F 83% 30.09 in 10.0 mi NNW 15.0 mph 20.7 mph N/A   Overcast
2:35 AM 47.7 °F - 41.9 °F 80% 30.09 in 10.0 mi NNW 15.0 mph 21.9 mph N/A   Overcast
2:55 AM 47.7 °F - 41.7 °F 80% 30.10 in 10.0 mi North 16.1 mph 20.7 mph N/A   Overcast
3:15 AM 47.3 °F - 42.4 °F 83% 30.10 in 10.0 mi NNW 9.2 mph - N/A   Overcast
3:35 AM 47.3 °F - 42.1 °F 82% 30.09 in 10.0 mi NNW 11.5 mph - N/A   Overcast
3:55 AM 47.3 °F - 41.0 °F 79% 30.09 in 10.0 mi NNW 16.1 mph 24.2 mph N/A   Overcast
4:15 AM 46.9 °F - 41.2 °F 80% 30.09 in 10.0 mi NNW 12.7 mph - N/A   Overcast
4:35 AM 46.9 °F - 41.5 °F 81% 30.10 in 10.0 mi NNW 13.8 mph 18.4 mph N/A   Overcast
4:55 AM 46.8 °F - 41.2 °F 81% 30.11 in 10.0 mi NNW 15.0 mph - N/A   Overcast
5:15 AM 46.6 °F - 40.6 °F 80% 30.11 in 10.0 mi NNW 16.1 mph 23.0 mph N/A   Overcast
5:35 AM 45.5 °F 39.9 °F 40.5 °F 83% 30.11 in 10.0 mi NNW 11.5 mph 18.4 mph N/A   Overcast
5:55 AM 44.2 °F 40.3 °F 40.8 °F 88% 30.12 in 10.0 mi NW 6.9 mph - N/A   Scattered Clouds
6:15 AM 43.2 °F 39.7 °F 40.6 °F 91% 30.13 in 10.0 mi NW 5.8 mph - N/A   Clear
6:35 AM 42.6 °F 39.0 °F 41.4 °F 95% 30.14 in 10.0 mi NW 5.8 mph - N/A   Clear
6:55 AM 43.0 °F 38.8 °F 41.0 °F 93% 30.14 in 10.0 mi NNW 6.9 mph - N/A   Clear
8:15 AM 46.9 °F - 40.3 °F 78% 30.15 in 10.0 mi North 13.8 mph 21.9 mph N/A   Clear
8:35 AM - - - N/A% 30.16 in 10.0 mi North 13.8 mph 19.6 mph N/A   Clear
8:55 AM 49.1 °F - 38.7 °F 67% 30.16 in 10.0 mi North 16.1 mph 20.7 mph N/A   Clear
9:15 AM 50.0 °F - 37.6 °F 62% 30.17 in 10.0 mi North 13.8 mph - 0.03 in   Clear
10:55 AM 55.6 °F - 37.6 °F 51% 30.23 in 10.0 mi North 16.1 mph 23.0 mph N/A   Clear
11:35 AM 56.1 °F - 35.4 °F 46% 30.24 in 10.0 mi NNW 19.6 mph 27.6 mph N/A   Scattered Clouds
12:15 PM 57.0 °F - 36.3 °F 46% 30.24 in 10.0 mi NNW 19.6 mph 24.2 mph N/A   Mostly Cloudy
12:35 PM 56.8 °F - 35.2 °F 44% 30.23 in 10.0 mi North 19.6 mph 26.5 mph N/A   Scattered Clouds
12:55 PM 57.2 °F - 37.0 °F 47% 30.23 in 10.0 mi North 17.3 mph 23.0 mph N/A   Mostly Cloudy
1:15 PM 58.1 °F - 37.0 °F 45% 30.23 in 10.0 mi North 18.4 mph 26.5 mph N/A   Mostly Cloudy
1:35 PM 57.7 °F - 37.0 °F 46% 30.24 in 10.0 mi NNW 16.1 mph 23.0 mph N/A   Mostly Cloudy
1:55 PM 58.1 °F - 35.6 °F 43% 30.23 in 10.0 mi North 17.3 mph 29.9 mph N/A   Mostly Cloudy
2:15 PM 59.2 °F - 36.7 °F 43% 30.23 in 10.0 mi North 17.3 mph 23.0 mph N/A   Mostly Cloudy
2:35 PM 58.3 °F - 36.5 °F 44% 30.23 in 10.0 mi North 15.0 mph 20.7 mph N/A   Mostly Cloudy
2:55 PM 59.5 °F - 34.3 °F 39% 30.23 in 10.0 mi North 9.2 mph 25.3 mph N/A   Mostly Cloudy
3:15 PM 58.8 °F - 34.3 °F 40% 30.23 in 10.0 mi North 17.3 mph 23.0 mph N/A   Mostly Cloudy
3:35 PM 59.7 °F - 34.2 °F 38% 30.22 in 10.0 mi NNW 15.0 mph - N/A   Scattered Clouds
3:55 PM 58.5 °F - 33.3 °F 39% 30.22 in 10.0 mi North 15.0 mph 19.6 mph N/A   Scattered Clouds
4:15 PM 60.3 °F - 33.6 °F 37% 30.22 in 10.0 mi NNW 13.8 mph 23.0 mph N/A   Scattered Clouds
4:35 PM 59.9 °F - 34.0 °F 38% 30.21 in 10.0 mi North 15.0 mph 20.7 mph N/A   Scattered Clouds
4:55 PM 58.8 °F - 34.2 °F 40% 30.21 in 10.0 mi North 15.0 mph - N/A   Clear
5:15 PM 61.0 °F - 34.3 °F 37% 30.21 in 10.0 mi NW 15.0 mph 20.7 mph N/A   Scattered Clouds
5:35 PM 61.3 °F - 34.3 °F 36% 30.22 in 10.0 mi NW 13.8 mph 24.2 mph N/A   Scattered Clouds
5:55 PM 61.3 °F - 34.2 °F 36% 30.22 in 10.0 mi NNW 11.5 mph - N/A   Scattered Clouds
6:15 PM 60.8 °F - 33.4 °F 36% 30.22 in 10.0 mi North 16.1 mph 24.2 mph N/A   Scattered Clouds
6:35 PM 60.3 °F - 33.1 °F 36% 30.22 in 10.0 mi North 11.5 mph - N/A   Scattered Clouds
7:15 PM 59.5 °F - 32.4 °F 36% 30.22 in 10.0 mi North 13.8 mph - N/A   Mostly Cloudy
7:35 PM 59.2 °F - 32.7 °F 37% 30.23 in 10.0 mi North 11.5 mph - N/A   Mostly Cloudy
7:55 PM 57.9 °F - 32.2 °F 38% 30.23 in 10.0 mi North 12.7 mph - N/A   Mostly Cloudy
8:15 PM 55.4 °F - 34.0 °F 44% 30.25 in 10.0 mi North 6.9 mph - N/A   Scattered Clouds
8:35 PM 54.1 °F - 34.5 °F 48% 30.26 in 10.0 mi NNW 6.9 mph - N/A   Clear
8:55 PM 52.7 °F - 34.5 °F 50% 30.26 in 10.0 mi NNW 5.8 mph - N/A   Clear
9:15 PM 51.8 °F - 34.7 °F 52% 30.26 in 10.0 mi NNW 5.8 mph - N/A   Clear
9:35 PM 51.1 °F - 34.9 °F 54% 30.27 in 10.0 mi NNW 6.9 mph - N/A   Clear
9:55 PM 50.4 °F - 34.9 °F 55% 30.28 in 10.0 mi NNW 5.8 mph - N/A   Clear
10:15 PM 50.2 °F - 34.7 °F 55% 30.28 in 10.0 mi North 4.6 mph - N/A   Clear
10:35 PM 49.6 °F - 34.7 °F 56% 30.28 in 10.0 mi North 4.6 mph - N/A   Clear
10:55 PM 49.8 °F - 34.3 °F 55% 30.28 in 10.0 mi North 4.6 mph - N/A   Clear
11:15 PM 50.0 °F - 33.8 °F 54% 30.28 in 10.0 mi North 4.6 mph - N/A   Clear
11:35 PM 49.3 °F - 34.0 °F 56% 30.28 in 10.0 mi North 4.6 mph - N/A   Clear
11:55 PM 48.2 °F - 34.5 °F 59% 30.28 in 10.0 mi North 4.6 mph - N/A   Clear